FW5633 Weather Reports


time (UTC)temp
C
wind
direction
speed
KPH
gust
KPH
rain 1hr
cm
rain 24hr
cm
rain mn
cm
humidity
%
barometer
mb
20260510000031 11 328 3.2 17.7 0.18 0.71 0.38 92 1007.7
20260509235531 11 339 6.4 17.7 0.15 0.69 0.36 91 1007.8
20260509235032 11 300 8.0 25.7 0.13 0.66 0.33 91 1007.8
20260509234534 11 310 11.3 29.0 0.10 0.64 0.30 90 1007.8
20260509234030 12 263 12.9 37.0 0.08 0.61 0.28 88 1007.8
20260509233533 12 337 12.9 53.1 0.05 0.58 0.25 85 1008.0
20260509233030 14 273 17.7 33.8 0.03 0.56 0.23 79 1007.4
20260509232530 16 257 16.1 33.8 0.00 0.53 0.20 72 1007.3
20260509232030 17 272 8.0 16.1 0.00 0.53 0.20 67 1005.6
20260509231530 17 186 11.3 16.1 0.00 0.53 0.20 66 1004.9
20260509231029 17 229 8.0 16.1 0.00 0.53 0.20 66 1004.9
20260509230530 17 207 9.7 16.1 0.00 0.53 0.20 66 1004.9
20260509230029 17 218 9.7 25.7 0.00 0.58 0.20 65 1004.8
20260509225529 17 190 6.4 25.7 0.00 0.58 0.20 64 1004.6
20260509225028 18 257 11.3 22.5 0.00 0.58 0.20 64 1004.8
20260509224528 18 236 9.7 24.1 0.00 0.58 0.20 65 1004.8
20260509224029 18 190 9.7 22.5 0.00 0.58 0.20 64 1004.8
20260509223528 18 197 11.3 32.2 0.00 0.58 0.20 64 1004.7
20260509223028 18 211 14.5 30.6 0.00 0.58 0.20 63 1004.8
20260509222527 18 213 16.1 30.6 0.00 0.58 0.20 63 1004.5
20260509222029 18 197 14.5 29.0 0.00 0.58 0.20 64 1004.3
20260509221527 18 211 14.5 29.0 0.00 0.58 0.20 63 1004.3
20260509221030 18 190 17.7 29.0 0.00 0.58 0.20 63 1004.3
20260509220526 18 221 16.1 30.6 0.00 0.58 0.20 63 1004.3
20260509220026 18 204 11.3 30.6 0.00 0.61 0.20 63 1004.2
20260509215526 18 196 9.7 27.4 0.00 0.61 0.20 65 1004.3
20260509215028 18 205 14.5 27.4 0.00 0.61 0.20 63 1004.3
20260509214535 18 213 19.3 30.6 0.00 0.61 0.20 63 1004.5
20260509214128 18 219 17.7 32.2 0.00 0.61 0.20 63 1004.5
20260509213527 18 232 22.5 33.8 0.00 0.61 0.20 62 1004.3
20260509213024 18 269 17.7 33.8 0.00 0.61 0.20 64 1004.3
20260509212524 18 227 16.1 29.0 0.00 0.61 0.20 62 1004.4
20260509212023 18 214 14.5 25.7 0.00 0.61 0.20 64 1004.6
20260509211525 18 217 9.7 24.1 0.00 0.61 0.20 65 1004.6
20260509211023 18 228 11.3 33.8 0.00 0.61 0.20 64 1004.7
20260509210522 18 209 17.7 33.8 0.00 0.61 0.20 61 1004.7
20260509210021 18 231 12.9 30.6 0.00 0.61 0.20 63 1004.6
20260509205519 18 217 16.1 29.0 0.00 0.61 0.20 65 1004.6
20260509205019 18 204 16.1 29.0 0.00 0.61 0.20 63 1004.7
20260509204527 18 222 16.1 37.0 0.00 0.61 0.20 65 1004.8
20260509204017 18 221 22.5 40.2 0.00 0.61 0.20 63 1005.0
20260509203516 18 228 12.9 30.6 0.00 0.61 0.20 64 1005.2
20260509203015 18 228 14.5 32.2 0.00 0.61 0.20 66 1005.1
20260509202514 18 186 12.9 38.6 0.00 0.61 0.20 64 1005.4
20260509202014 17 209 19.3 38.6 0.00 0.61 0.20 65 1005.7
20260509201514 17 245 17.7 29.0 0.00 0.61 0.20 67 1005.7
20260509201012 17 219 17.7 33.8 0.00 0.61 0.20 67 1005.7
20260509200515 17 226 19.3 33.8 0.00 0.61 0.20 65 1005.6
20260509200012 17 225 9.7 25.7 0.00 0.61 0.20 67 1005.7
20260509195509 17 232 14.5 25.7 0.00 0.61 0.20 67 1005.8
20260509195011 17 234 9.7 20.9 0.00 0.61 0.20 67 1005.8
20260509194508 17 229 11.3 33.8 0.00 0.61 0.20 70 1005.9
20260509194006 17 199 16.1 33.8 0.00 0.61 0.20 68 1006.0
20260509193506 17 188 19.3 32.2 0.00 0.61 0.20 67 1006.1
20260509193006 17 191 14.5 30.6 0.00 0.61 0.20 69 1006.1
20260509192504 17 207 12.9 25.7 0.00 0.61 0.20 70 1006.2
20260509192004 17 207 12.9 27.4 0.00 0.61 0.20 69 1006.3
20260509191504 17 215 11.3 27.4 0.00 0.61 0.20 72 1006.3
20260509191005 17 174 4.8 22.5 0.00 0.61 0.20 75 1006.2
20260509190502 17 212 8.0 24.1 0.00 0.61 0.20 72 1006.4
20260509190002 17 159 6.4 24.1 0.00 0.61 0.20 75 1006.3
20260509185502 16 205 16.1 27.4 0.00 0.61 0.20 71 1006.5
20260509185001 16 211 11.3 22.5 0.00 0.61 0.20 72 1006.5
20260509184600 16 146 8.0 20.9 0.00 0.61 0.20 74 1006.5
20260509184059 16 207 14.5 29.0 0.00 0.61 0.20 71 1006.5
20260509183600 16 221 14.5 29.0 0.00 0.61 0.20 73 1006.6
20260509183100 16 198 16.1 27.4 0.00 0.61 0.20 73 1006.5
20260509182604 16 236 11.3 25.7 0.00 0.61 0.20 75 1006.5
20260509182058 16 216 14.5 24.1 0.00 0.61 0.20 75 1006.5
20260509181604 16 196 12.9 24.1 0.00 0.61 0.20 75 1006.5
20260509181057 16 225 9.7 25.7 0.00 0.61 0.20 77 1006.5
20260509180558 16 213 6.4 29.0 0.00 0.61 0.20 77 1006.5
20260509180059 16 212 16.1 29.0 0.00 0.61 0.20 75 1006.6
20260509175556 16 238 6.4 24.1 0.00 0.61 0.20 77 1006.5
20260509175056 16 231 14.5 24.1 0.00 0.61 0.20 76 1006.5
20260509174602 16 215 8.0 30.6 0.00 0.61 0.20 75 1006.6
20260509174053 15 242 16.1 30.6 0.00 0.61 0.20 76 1006.7
20260509173551 15 209 12.9 20.9 0.00 0.61 0.20 77 1006.7
20260509173102 15 250 11.3 24.1 0.00 0.61 0.20 77 1006.7
20260509172549 15 199 9.7 25.7 0.00 0.61 0.20 80 1006.9
20260509172049 15 173 12.9 25.7 0.00 0.61 0.20 83 1006.9
20260509171552 15 206 6.4 19.3 0.00 0.61 0.20 82 1007.0
20260509171046 14 213 11.3 19.3 0.00 0.61 0.20 85 1007.1
20260509170545 14 212 9.7 17.7 0.00 0.61 0.20 86 1007.1
20260509170045 13 223 9.7 19.3 0.00 0.61 0.20 87 1007.2
20260509165541 13 220 11.3 19.3 0.00 0.61 0.20 88 1007.2
20260509165040 13 219 8.0 16.1 0.00 0.61 0.20 89 1007.3
20260509164542 13 218 8.0 14.5 0.00 0.61 0.20 90 1007.3
20260509164037 12 254 6.4 12.9 0.00 0.61 0.20 91 1007.3
20260509163536 12 236 6.4 12.9 0.00 0.61 0.20 91 1007.6
20260509163036 12 229 4.8 12.9 0.00 0.61 0.20 92 1007.5
20260509162535 12 223 9.7 12.9 0.00 0.61 0.20 92 1007.5
20260509162039 12 217 4.8 12.9 0.00 0.61 0.20 94 1007.5
20260509161533 12 242 3.2 12.9 0.00 0.61 0.20 94 1007.6
20260509161038 12 274 4.8 11.3 0.00 0.61 0.20 95 1007.6
20260509160532 12 242 4.8 9.7 0.00 0.61 0.20 95 1007.5
20260509160031 11 241 1.6 9.7 0.00 0.61 0.20 95 1007.6
20260509155529 11 227 3.2 9.7 0.00 0.61 0.20 95 1007.4
20260509155029 11 233 3.2 11.3 0.00 0.61 0.20 96 1007.5
20260509154534 11 219 4.8 11.3 0.00 0.61 0.20 95 1007.5
20260509154030 11 240 4.8 11.3 0.00 0.61 0.20 95 1007.6
20260509153527 11 217 6.4 11.3 0.00 0.61 0.20 95 1007.6
20260509153032 11 220 4.8 11.3 0.00 0.61 0.20 95 1007.6
20260509152526 11 235 6.4 11.3 0.00 0.61 0.20 96 1007.6
20260509152026 11 229 4.8 11.3 0.00 0.61 0.20 96 1007.7
20260509151527 11 221 8.0 16.1 0.00 0.61 0.20 96 1007.7
20260509151025 11 223 11.3 16.1 0.00 0.61 0.20 96 1007.7
20260509150525 11 210 9.7 14.5 0.00 0.61 0.20 96 1007.6
20260509150025 11 204 3.2 9.7 0.00 0.61 0.20 96 1007.6
20260509145525 11 234 4.8 16.1 0.00 0.61 0.20 97 1007.5
20260509145024 11 225 9.7 16.1 0.00 0.61 0.20 96 1007.6
20260509144524 11 202 6.4 14.5 0.00 0.61 0.20 96 1007.5
20260509144023 11 203 6.4 14.5 0.00 0.61 0.20 97 1007.5
20260509143525 11 237 8.0 14.5 0.00 0.61 0.20 97 1007.6
20260509143023 10 219 6.4 14.5 0.00 0.61 0.20 97 1007.6
20260509142521 10 210 3.2 9.7 0.00 0.61 0.20 97 1007.6
20260509142020 10 197 6.4 11.3 0.00 0.61 0.20 97 1007.6
20260509141520 10 206 6.4 11.3 0.00 0.61 0.20 97 1007.7
20260509141020 10 234 6.4 12.9 0.00 0.61 0.20 97 1007.7
20260509140519 10 226 8.0 19.3 0.00 0.61 0.20 97 1007.6
20260509140019 10 209 8.0 19.3 0.00 0.61 0.20 97 1007.6
20260509135521 10 209 6.4 17.7 0.00 0.61 0.20 97 1007.5
20260509135019 10 219 8.0 17.7 0.00 0.61 0.20 97 1007.5
20260509134518 10 240 3.2 9.7 0.00 0.61 0.20 97 1007.5
20260509134016 10 214 1.6 11.3 0.00 0.61 0.20 97 1007.6
20260509133515 10 170 4.8 12.9 0.00 0.61 0.20 97 1007.7
20260509133015 10 213 8.0 12.9 0.00 0.61 0.20 97 1007.7
20260509132515 10 227 4.8 11.3 0.00 0.61 0.20 97 1007.8
20260509132015 10 233 6.4 11.3 0.00 0.61 0.20 97 1007.8
20260509131527 10 217 4.8 11.3 0.00 0.61 0.20 97 1007.8
20260509131013 10 223 3.2 11.3 0.00 0.61 0.20 97 1007.7
20260509130514 10 199 4.8 11.3 0.00 0.61 0.20 97 1007.8
20260509130022 10 227 3.2 9.7 0.00 0.61 0.20 97 1007.8
20260509125511 10 223 3.2 9.7 0.00 0.61 0.20 97 1007.8
20260509125013 10 237 1.6 6.4 0.00 0.61 0.20 97 1007.8
20260509124513 10 209 3.2 6.4 0.00 0.61 0.20 97 1007.9
20260509124010 10 210 1.6 11.3 0.00 0.61 0.20 97 1007.9
20260509123509 10 211 4.8 11.3 0.00 0.61 0.20 97 1008.0
20260509123009 10 196 1.6 8.0 0.03 0.61 0.20 97 1008.1
20260509122508 10 143 1.6 6.4 0.03 0.61 0.20 97 1008.2
20260509122010 10 226 1.6 6.4 0.03 0.61 0.20 97 1008.2
20260509121511 9 225 1.6 11.3 0.03 0.61 0.20 97 1008.3
20260509121013 9 222 6.4 11.3 0.03 0.61 0.20 97 1008.3
20260509120509 9 217 1.6 6.4 0.03 0.61 0.20 97 1008.3
20260509120007 9 217 0.0 8.0 0.03 0.61 0.20 97 1008.2
20260509115505 9 217 1.6 4.8 0.03 0.61 0.20 97 1008.2
20260509115005 9 217 0.0 4.8 0.03 0.61 0.20 97 1008.2
20260509114505 9 217 0.0 9.7 0.03 0.61 0.20 97 1008.2
20260509114004 9 217 0.0 9.7 0.03 0.61 0.20 97 1008.2
20260509113504 9 214 0.0 6.4 0.03 0.61 0.20 97 1008.2
20260509113003 9 128 1.6 6.4 0.00 0.58 0.18 97 1008.2
20260509112503 9 155 0.0 4.8 0.00 0.58 0.18 97 1008.2
20260509112003 9 155 0.0 4.8 0.00 0.58 0.18 97 1008.2
20260509111503 9 190 0.0 3.2 0.00 0.58 0.18 97 1008.1
20260509111002 9 188 0.0 6.4 0.00 0.58 0.18 97 1008.1
20260509110502 9 207 0.0 4.8 0.00 0.58 0.18 97 1008.1
20260509110003 9 236 0.0 3.2 0.00 0.58 0.18 97 1008.0
20260509105503 9 236 0.0 8.0 0.00 0.58 0.18 97 1008.0
20260509105003 9 236 1.6 8.0 0.00 0.58 0.18 97 1008.0
20260509104502 9 209 1.6 11.3 0.00 0.58 0.18 97 1008.0
20260509104001 9 186 1.6 11.3 0.00 0.58 0.18 97 1008.0
20260509103506 9 161 1.6 11.3 0.03 0.58 0.18 97 1008.0
20260509103001 9 192 1.6 4.8 0.03 0.58 0.18 97 1008.1
20260509102501 9 192 0.0 4.8 0.03 0.58 0.18 97 1008.1
20260509102000 9 235 1.6 3.2 0.03 0.58 0.18 97 1008.1
20260509101501 9 235 0.0 3.2 0.03 0.58 0.18 97 1008.1
20260509101102 9 235 1.6 3.2 0.03 0.58 0.18 97 1008.2
20260509100559 9 234 0.0 3.2 0.03 0.58 0.18 97 1008.1
20260509095603 9 234 1.6 8.0 0.03 0.58 0.18 97 1008.2
20260509095059 9 234 3.2 9.7 0.03 0.58 0.18 97 1008.3
20260509094558 9 235 3.2 9.7 0.03 0.58 0.18 97 1008.3
20260509094057 9 211 1.6 8.0 0.03 0.58 0.18 97 1008.4
20260509093557 9 205 4.8 11.3 0.03 0.56 0.15 97 1008.4
20260509093057 9 230 6.4 9.7 0.03 0.56 0.15 97 1008.3
20260509092557 9 216 1.6 9.7 0.03 0.56 0.15 97 1008.5
20260509092055 9 228 3.2 11.3 0.03 0.56 0.15 97 1008.4
20260509091556 9 226 3.2 11.3 0.03 0.56 0.15 97 1008.4
20260509091055 9 240 1.6 8.0 0.03 0.56 0.15 97 1008.4
20260509090555 9 226 1.6 8.0 0.03 0.56 0.15 97 1008.4
20260509090105 9 236 3.2 11.3 0.03 0.56 0.15 97 1008.5
20260509085555 9 212 3.2 11.3 0.03 0.56 0.15 97 1008.4
20260509085055 9 237 1.6 8.0 0.03 0.56 0.15 97 1008.5
20260509084559 9 219 3.2 8.0 0.03 0.56 0.15 97 1008.5
20260509084053 9 250 1.6 8.0 0.03 0.56 0.15 97 1008.4
20260509083551 9 250 1.6 11.3 0.00 0.53 0.13 97 1008.6
20260509083058 9 250 4.8 11.3 0.00 0.53 0.13 97 1008.6
20260509082551 9 221 3.2 6.4 0.03 0.53 0.13 97 1008.6
20260509082053 9 221 1.6 8.0 0.03 0.53 0.13 97 1008.6
20260509081550 9 221 3.2 8.0 0.03 0.53 0.13 96 1008.7
20260509081050 9 221 3.2 11.3 0.03 0.53 0.13 96 1008.7
20260509080549 9 213 6.4 11.3 0.03 0.53 0.13 97 1008.6
20260509080048 9 220 1.6 4.8 0.03 0.56 0.13 97 1008.5
20260509075548 9 211 0.0 6.4 0.03 0.56 0.13 96 1008.5
20260509075047 9 211 1.6 6.4 0.03 0.56 0.13 96 1008.6
20260509074546 9 211 0.0 4.8 0.05 0.56 0.13 96 1008.6
20260509074047 9 211 1.6 8.0 0.05 0.56 0.13 96 1008.6
20260509073546 9 212 3.2 8.0 0.05 0.56 0.13 96 1008.7
20260509073048 9 215 0.0 6.4 0.05 0.56 0.13 96 1008.6
20260509072546 9 215 1.6 6.4 0.03 0.53 0.10 96 1008.6
20260509072043 9 215 1.6 6.4 0.03 0.53 0.10 96 1008.7
20260509071543 8 216 1.6 6.4 0.03 0.53 0.10 96 1008.8
20260509071043 9 218 0.0 4.8 0.03 0.53 0.10 96 1008.7
20260509070544 9 218 1.6 4.8 0.03 0.53 0.10 96 1008.7
20260509070043 9 218 0.0 6.4 0.03 0.53 0.10 96 1008.7
20260509065541 9 218 1.6 6.4 0.05 0.53 0.10 96 1008.7
20260509065043 9 218 0.0 9.7 0.05 0.53 0.10 96 1008.8
20260509064544 9 218 3.2 9.7 0.03 0.51 0.08 96 1008.8
20260509064039 9 221 1.6 6.4 0.03 0.51 0.08 96 1008.9
20260509063537 9 169 1.6 6.4 0.03 0.51 0.08 96 1009.1
20260509063037 9 195 1.6 9.7 0.03 0.51 0.08 96 1009.1
20260509062537 9 215 4.8 9.7 0.05 0.51 0.08 96 1009.2
20260509062035 9 232 0.0 6.4 0.05 0.51 0.08 96 1009.3
20260509061541 9 232 1.6 9.7 0.05 0.51 0.08 96 1009.4
20260509061034 9 234 6.4 9.7 0.05 0.51 0.08 96 1009.5
20260509060534 9 232 3.2 8.0 0.05 0.51 0.08 96 1009.5
20260509060037 9 234 4.8 11.3 0.05 0.51 0.08 96 1009.6
20260509055533 9 157 3.2 11.3 0.03 0.48 0.05 96 1009.6
20260509055033 9 225 1.6 8.0 0.03 0.48 0.05 96 1009.7
20260509054531 9 213 1.6 8.0 0.03 0.48 0.05 96 1009.9
20260509054030 9 215 3.2 8.0 0.03 0.48 0.05 96 1009.9
20260509053530 9 215 0.0 6.4 0.05 0.48 0.05 96 1009.9
20260509053037 9 215 3.2 6.4 0.05 0.48 0.05 96 1010.0
20260509052529 9 215 1.6 6.4 0.03 0.46 0.03 96 1010.1
20260509052027 9 201 1.6 8.0 0.03 0.46 0.03 96 1010.1
20260509051527 9 216 4.8 8.0 0.03 0.46 0.03 96 1010.2
20260509051026 9 215 3.2 11.3 0.03 0.46 0.03 96 1010.2
20260509050526 9 217 6.4 11.3 0.03 0.46 0.03 96 1010.3
20260509050028 9 234 3.2 12.9 0.03 0.46 0.03 96 1010.4
20260509045525 9 223 4.8 12.9 0.03 0.46 0.03 96 1010.5
20260509045024 9 221 4.8 9.7 0.03 0.46 0.03 96 1010.5
20260509044522 9 213 3.2 12.9 0.03 0.46 0.03 96 1010.5
20260509044023 9 232 4.8 12.9 0.05 0.46 0.03 96 1010.6
20260509043521 9 142 3.2 11.3 0.03 0.43 0.00 96 1010.5
20260509043021 9 232 4.8 8.0 0.03 0.43 0.00 96 1010.6
20260509042520 9 188 1.6 6.4 0.03 0.43 0.00 96 1010.5
20260509042018 9 187 1.6 4.8 0.03 0.43 0.00 96 1010.6
20260509041528 9 147 1.6 6.4 0.03 0.43 0.00 96 1010.7
20260509041020 9 147 3.2 6.4 0.03 0.43 0.00 96 1010.7
20260509040516 9 234 0.0 8.0 0.03 0.43 0.00 96 1010.8
20260509040017 9 234 0.0 8.0 0.05 0.43 0.43 96 1010.8
20260509035515 9 188 0.0 4.8 0.05 0.43 0.43 96 1010.9
20260509035014 9 284 1.6 11.3 0.05 0.43 0.43 96 1010.9
20260509034514 9 222 3.2 11.3 0.05 0.43 0.43 96 1010.9
20260509034014 9 221 6.4 9.7 0.05 0.41 0.41 96 1010.9
20260509033514 9 239 1.6 6.4 0.05 0.41 0.41 96 1010.9
20260509033014 9 218 3.2 6.4 0.05 0.41 0.41 96 1011.1
20260509032514 9 234 1.6 9.7 0.05 0.41 0.41 96 1011.0
20260509032015 9 215 3.2 9.7 0.08 0.41 0.41 96 1011.0
20260509031514 9 219 3.2 9.7 0.08 0.41 0.41 95 1011.1
20260509031013 9 222 3.2 12.9 0.08 0.41 0.41 95 1011.3
20260509030517 9 217 8.0 12.9 0.10 0.41 0.41 95 1011.5
20260509030015 9 161 4.8 11.3 0.08 0.38 0.38 95 1011.4
20260509025515 9 228 3.2 8.0 0.08 0.38 0.38 95 1011.5
20260509025012 9 222 1.6 6.4 0.08 0.38 0.38 95 1011.4
20260509024514 9 223 1.6 6.4 0.10 0.38 0.38 95 1011.4
20260509024012 9 221 0.0 6.4 0.08 0.36 0.36 95 1011.5
20260509023512 9 221 3.2 6.4 0.10 0.36 0.36 95 1011.5
20260509023011 8 221 1.6 6.4 0.10 0.36 0.36 95 1011.4
20260509022513 8 222 0.0 4.8 0.10 0.36 0.36 95 1011.4
20260509022012 8 222 1.6 4.8 0.10 0.33 0.33 95 1011.5
20260509021511 8 222 1.6 4.8 0.10 0.33 0.33 95 1011.6
20260509021010 8 222 0.0 3.2 0.10 0.33 0.33 95 1011.7
20260509020512 8 222 0.0 3.2 0.10 0.30 0.30 95 1011.7
20260509020010 8 222 0.0 3.2 0.10 0.30 0.30 95 1011.7
20260509015510 8 222 0.0 4.8 0.13 0.30 0.30 94 1011.7
20260509015010 9 222 1.6 9.7 0.13 0.30 0.30 94 1011.7
20260509014512 9 222 1.6 9.7 0.10 0.28 0.28 94 1011.7
20260509014013 9 230 3.2 8.0 0.13 0.28 0.28 94 1011.7
20260509013509 9 232 3.2 8.0 0.10 0.25 0.25 94 1011.7
20260509013008 9 215 3.2 8.0 0.13 0.25 0.25 94 1011.5
20260509012508 9 235 1.6 8.0 0.13 0.25 0.25 94 1011.5
20260509012008 9 244 1.6 4.8 0.10 0.23 0.23 94 1011.5
20260509011508 9 245 0.0 3.2 0.10 0.23 0.23 94 1011.4
20260509011009 9 245 0.0 0.0 0.10 0.23 0.23 93 1011.3
20260509010510 9 245 0.0 0.0 0.08 0.20 0.20 93 1011.3
20260509010017 9 245 0.0 1.6 0.08 0.20 0.20 93 1011.3
20260509005506 9 245 0.0 6.4 0.05 0.18 0.18 93 1011.2
20260509005005 9 245 1.6 6.4 0.05 0.18 0.18 93 1011.1
20260509004509 9 245 1.6 8.0 0.05 0.18 0.18 93 1011.1
20260509004005 9 245 4.8 9.7 0.03 0.15 0.15 93 1011.2
20260509003504 10 232 6.4 11.3 0.03 0.15 0.15 92 1011.2
20260509003004 10 228 8.0 11.3 0.00 0.13 0.13 92 1011.1
20260509002504 10 198 0.0 3.2 0.00 0.13 0.13 92 1011.0
20260509002003 10 198 0.0 6.4 0.00 0.13 0.13 92 1010.8
20260509001505 10 198 1.6 6.4 0.00 0.13 0.13 92 1010.8
20260509001001 10 223 0.0 3.2 0.00 0.13 0.13 92 1010.7
20260509000604 10 223 0.0 3.2 0.00 0.13 0.13 92 1010.7